WetterOnline ( https://www.wetteronline.de )

Wetter aktuell Jünkerath

Aktuelles Wetter: Nürburg-Barweiler (488m)

6-stündlich | Neueste Meldungen
Ortszeit Temperatur Wetter
Mo, 17.06. 8:00 12.5° C leicht bewölkt
Mo, 17.06. 2:00 11.9° C wolkenlos
So, 16.06. 20:00 18.7° C bedeckt
So, 16.06. 14:00 17.2° C bedeckt
So, 16.06. 8:00 14.2° C wolkenlos
So, 16.06. 2:00 14.7° C wolkig
Sa, 15.06. 20:00 20.2° C leicht bewölkt
Sa, 15.06. 14:00 20.4° C leicht bewölkt
Ortszeit Temperatur Wetter
Mo, 17.06. 9:30 18.6° C wolkig
Mo, 17.06. 9:20 18.6° C wolkig
Mo, 17.06. 9:10 17.3° C wolkig
Mo, 17.06. 9:00 16.0° C leicht bewölkt
Mo, 17.06. 8:50 16.0° C leicht bewölkt
Mo, 17.06. 8:40 15.6° C leicht bewölkt
Mo, 17.06. 8:30 13.9° C wolkig
Mo, 17.06. 8:00 12.5° C leicht bewölkt
Mo, 17.06. 7:30 12.2° C leicht bewölkt
Mo, 17.06. 7:00 10.9° C wolkenlos
Mo, 17.06. 6:30 9.8° C wolkenlos
Ortszeit Relative Feuchte Sichtweite
Mo, 17.06. 8:00 80% 35 km
Mo, 17.06. 2:00 88% 45 km
So, 16.06. 20:00 57% 70 km
So, 16.06. 14:00 61% 65 km
So, 16.06. 8:00 69% 35 km
So, 16.06. 2:00 73% 40 km
Sa, 15.06. 20:00 50% 35 km
Sa, 15.06. 14:00 56% 25 km
Ortszeit Relative Feuchte Sichtweite
Mo, 17.06. 9:30 57% 35 km
Mo, 17.06. 9:20 57% -
Mo, 17.06. 9:10 71% -
Mo, 17.06. 9:00 73% 30 km
Mo, 17.06. 8:50 73% -
Mo, 17.06. 8:40 74% -
Mo, 17.06. 8:30 79% 40 km
Mo, 17.06. 8:00 80% 35 km
Mo, 17.06. 7:30 80% 25 km
Mo, 17.06. 7:00 83% 23 km
Mo, 17.06. 6:30 92% 19 km
Ortszeit Niederschlagsmenge Niederschlagsart
Mo, 17.06. 8:00 0.0 l/m2 in 12 Std. -
Mo, 17.06. 2:00 0.0 l/m2 in 6 Std. -
So, 16.06. 20:00 0.1 l/m2 in 12 Std. Regen
So, 16.06. 14:00 0.0 l/m2 in 6 Std. -
So, 16.06. 8:00 0.0 l/m2 in 12 Std. -
So, 16.06. 2:00 0.0 l/m2 in 6 Std. -
Sa, 15.06. 20:00 0.1 l/m2 in 12 Std. -
Sa, 15.06. 14:00 0.1 l/m2 in 6 Std. Regen
Ortszeit Niederschlagsmenge Niederschlagsart
Mo, 17.06. 9:30 0.0 l/m2 in 1 Std. -
Mo, 17.06. 9:20 keine Meldung -
Mo, 17.06. 9:10 keine Meldung -
Mo, 17.06. 9:00 0.0 l/m2 in 1 Std. -
Mo, 17.06. 8:50 keine Meldung -
Mo, 17.06. 8:40 keine Meldung -
Mo, 17.06. 8:30 0.0 l/m2 in 1 Std. -
Mo, 17.06. 8:00 0.0 l/m2 in 1 Std. -
Mo, 17.06. 7:30 0.0 l/m2 in 1 Std. -
Mo, 17.06. 7:00 0.0 l/m2 in 1 Std. -
Mo, 17.06. 6:30 0.0 l/m2 in 1 Std. -
Ortszeit Stärke Spitze Richtung
km/h Bft. km/h Grad Sektor
Mo, 17.06. 8:00 4 1 7 260° W
Mo, 17.06. 2:00 4 1 11 90° O
So, 16.06. 20:00 7 2 25 230° SW
So, 16.06. 14:00 13 3 28 240° SW
So, 16.06. 8:00 7 2 18 210° SW
So, 16.06. 2:00 11 2 22 240° SW
Sa, 15.06. 20:00 13 3 41 250° W
Sa, 15.06. 14:00 19 3 39 240° SW
Ortszeit Stärke Spitze Richtung
km/h Bft. km/h Grad Sektor
Mo, 17.06. 9:30 7 2 14 170° S
Mo, 17.06. 9:20 7 2 - 170° S
Mo, 17.06. 9:10 4 1 - 290° W
Mo, 17.06. 9:00 4 1 7 320° NW
Mo, 17.06. 8:50 4 1 - 320° NW
Mo, 17.06. 8:40 2 1 - 300° NW
Mo, 17.06. 8:30 4 1 7 260° W
Mo, 17.06. 8:00 4 1 4 260° W
Mo, 17.06. 7:30 0 0 4 - -
Mo, 17.06. 7:00 0 0 7 - -
Mo, 17.06. 6:30 4 1 7 270° W
Ortszeit Untergrenze Bedeckung Gattung
total tief tief mittel hoch
Mo, 17.06. 8:00 8400 m 7/8 0/8 - - -
Mo, 17.06. 2:00 - 0/8 0/8 - - -
So, 16.06. 20:00 2100 m 8/8 8/8 - - -
So, 16.06. 14:00 1800 m 8/8 8/8 - - -
So, 16.06. 8:00 - 0/8 0/8 - - -
So, 16.06. 2:00 3000 m 5/8 5/8 - - -
Sa, 15.06. 20:00 1500 m 8/8 1/8 - - -
Sa, 15.06. 14:00 930 m 4/8 3/8 - - -
Ortszeit Bedeckungsgrad in Achtel und Wolkenuntergrenze
Mo, 17.06. 9:30 7(9000m) 8(9000m)
Mo, 17.06. 9:20 7(9000m) 8(9000m)
Mo, 17.06. 9:10 7(9000m) 7(9000m)
Mo, 17.06. 9:00 5(9000m)
Mo, 17.06. 8:50 5(9000m)
Mo, 17.06. 8:40 5(9000m)
Mo, 17.06. 8:30 7(9000m)
Mo, 17.06. 8:00 5(8400m) 6(9000m) 7(9000m)
Mo, 17.06. 7:30 3(8400m) 5(9000m)
Mo, 17.06. 7:00 2(9000m)
Mo, 17.06. 6:30 keine Wolken
Ortszeit Luftdruck NN (hPa) Tendenz (hPa in 3 Std.)
Mo, 17.06. 8:00 1022 - 0,1
Mo, 17.06. 2:00 1023 0,0
So, 16.06. 20:00 1021 0,0
So, 16.06. 14:00 1021 + 0,6
So, 16.06. 8:00 1020 + 0,9
So, 16.06. 2:00 1019 + 1,3
Sa, 15.06. 20:00 1015 + 0,2
Sa, 15.06. 14:00 1014 + 1,5
Ortszeit Luftdruck NN (hPa) Tendenz (hPa in 3 Std.)
Mo, 17.06. 9:30 1021 - 0,1
Mo, 17.06. 9:20 1021 keine Meldung
Mo, 17.06. 9:10 1021 keine Meldung
Mo, 17.06. 9:00 1021 - 0,1
Mo, 17.06. 8:50 1021 keine Meldung
Mo, 17.06. 8:40 1022 keine Meldung
Mo, 17.06. 8:30 1022 + 0,1
Mo, 17.06. 8:00 1022 - 0,1
Mo, 17.06. 7:30 1022 - 0,3
Mo, 17.06. 7:00 1023 - 0,3
Mo, 17.06. 6:30 1023 - 0,2
Ortszeit Schneehöhe (cm)
Mo, 17.06. 8:00 -
Mo, 17.06. 2:00 -
So, 16.06. 20:00 -
So, 16.06. 14:00 -
So, 16.06. 8:00 -
So, 16.06. 2:00 -
Sa, 15.06. 20:00 -
Sa, 15.06. 14:00 -
Ortszeit Schneehöhe (cm)
Mo, 17.06. 9:30 -
Mo, 17.06. 9:20 -
Mo, 17.06. 9:10 -
Mo, 17.06. 9:00 -
Mo, 17.06. 8:50 -
Mo, 17.06. 8:40 -
Mo, 17.06. 8:30 -
Mo, 17.06. 8:00 -
Mo, 17.06. 7:30 -
Mo, 17.06. 7:00 -
Mo, 17.06. 6:30 -
Link zu dieser Seite / Seite empfehlen

Das Wetter in ...